Wetbulb
56.02 56.10 56.21 56.50 56.52 55.57 53.05 47.99 39.48 38.97 40.86 35.99 35.71 34.53 37.37 40.31 40.24 41.00 37.24 37.20 35.35 34.68 35.03 32.79 32.80 32.50 35.70 37.44 32.22 27.81 33.13 32.43 28.74 27.08 20.98 20.86 24.16 28.92 28.52 24.91 24.34 26.23 26.23 27.52
55.52 55.56 55.76 55.94 55.99 54.31 48.70 41.55 35.84 37.00 37.11 31.66 34.84 36.99 35.93 38.34 38.20 38.17 35.36 33.56 34.83 37.33 33.94 30.24 33.51 35.20 40.39 35.11 32.25 31.04 31.01 29.83 27.19 25.11 22.87 19.54 20.62 24.13 27.38 29.14 28.62 25.91 23.31 26.99
54.97 55.02 55.06 55.11 55.28 55.09 50.20 38.38 33.41 30.77 33.01 32.71 31.79 33.39 34.56 34.05 39.24 37.52 36.99 34.54 35.62 32.35 31.24 34.39 32.21 33.13 32.65 31.91 32.00 35.42 35.21 32.44 30.88 28.81 30.91 27.75 19.67 22.45 23.29 25.99 22.75 25.08 26.29 28.21
54.49 54.37 54.27 54.37 54.55 54.40 49.78 40.93 36.56 37.10 30.21 33.23 34.36 35.18 33.84 33.25 33.34 35.21 34.09 32.03 31.75 31.88 29.67 31.18 30.66 33.30 28.21 27.58 29.45 30.12 31.99 27.88 29.87 31.75 28.77 25.41 26.44 22.33 21.68 20.99 24.19 23.78 27.63 28.06
54.05 53.79 53.34 53.29 53.50 53.59 47.02 39.58 35.84 35.27 37.03 35.88 32.63 32.82 31.90 32.10 34.49 34.19 33.02 30.76 34.49 32.71 30.34 32.52 29.59 32.30 30.65 29.27 26.69 27.52 29.28 25.49 25.28 25.07 28.66 24.08 22.17 24.91 22.43 21.66 23.06 23.93 24.46 22.66
53.59 53.26 52.99 52.74 52.77 52.26 45.44 39.99 39.81 38.59 35.26 32.15 31.81 33.89 34.12 34.87 35.72 34.09 30.08 29.34 29.25 30.06 30.56 31.18 30.27 29.86 27.63 28.00 26.32 26.15 25.40 24.13 21.39 21.20 20.80 20.10 18.44 6.32 10.60 18.01 9.31 9.52 12.94 5.46
48.43 48.42 48.87 49.81 51.51 51.86 50.19 43.82 40.00 33.53 32.83 32.35 34.43 32.19 30.97 30.84 29.74 28.39 26.93 27.24 29.00 28.13 31.93 31.00 29.19 25.72 23.43 21.73 20.60 23.11 24.02 23.66 22.77 17.27 18.68 12.99 6.17 11.14 11.60 7.20 6.33 10.00 8.27 9.09
44.46 44.74 45.06 45.00 46.65 49.93 49.33 45.59 39.73 33.84 32.41 25.16 25.64 21.43 24.02 27.15 27.27 26.91 24.03 24.93 26.77 30.16 29.37 26.38 23.81 22.10 21.89 18.17 18.27 20.58 22.38 23.56 18.47 16.34 15.47 5.77 7.01 7.67 4.71 2.40 5.06 7.74 8.44 9.87
43.00 42.64 42.33 42.01 41.65 47.76 32.51 24.42 26.71 33.50 32.63 13.11 10.90 16.16 21.07 22.58 25.83 25.28 22.73 27.72 30.91 30.31 27.57 25.74 21.35 20.73 17.58 15.36 15.36 21.07 21.75 22.10 19.08 15.25 11.24 2.79 4.15 11.35 11.31 6.10 3.82 10.31 9.46 8.96
41.31 41.54 40.53 39.46 38.31 36.27 28.05 21.54 24.73 20.74 7.86 10.25 13.18 12.03 12.11 16.79 20.21 22.24 22.32 21.62 24.17 28.40 24.69 22.33 19.58 15.34 16.68 10.78 6.94 8.83 12.93 13.12 9.77 11.08 4.18 2.46 8.92 11.22 13.81 2.27 1.84 10.87 11.87 11.32
39.56 39.10 39.54 38.03 36.66 33.12 24.83 20.51 23.52 17.33 9.79 10.61 12.95 12.95 9.41 11.73 13.61 14.50 18.44 20.53 21.15 21.53 19.69 18.77 15.56 13.51 11.57 6.45 4.92 5.64 2.61 2.53 2.84 6.53 2.66 -3.92 10.75 11.32 3.28 8.10 11.52 12.14 11.86 12.10
38.91 38.30 37.58 37.88 35.63 32.61 27.51 19.49 23.38 23.00 15.04 12.87 18.40 17.31 17.00 15.02 14.80 12.21 18.33 18.04 16.63 16.16 18.07 17.58 17.11 10.77 12.47 10.03 1.83 7.67 -0.74 1.60 2.04 3.25 3.21 10.53 11.80 11.64 13.14 12.84 10.51 11.66 11.32 11.80
37.68 37.54 37.12 36.19 35.14 33.38 29.17 24.61 25.94 24.03 16.93 14.65 13.17 11.22 16.37 18.48 19.09 21.64 13.97 18.55 17.42 17.54 18.14 17.77 13.79 5.07 9.70 4.52 2.26 5.34 5.81 6.92 4.45 6.07 9.11 9.22 10.32 13.89 13.92 13.77 12.02 12.36 12.95 12.73
35.96 36.24 35.62 35.08 34.35 33.19 31.12 25.69 27.30 25.19 20.14 11.59 10.20 18.92 13.66 18.84 19.39 18.48 19.79 19.37 19.17 18.31 17.64 12.65 9.46 6.56 11.69 5.12 6.14 4.00 5.70 7.69 4.78 5.69 8.99 8.47 11.72 10.92 10.29 10.30 11.53 11.13 11.82 11.46
33.70 33.46 33.01 33.38 32.99 31.86 29.10 27.27 27.02 27.14 22.85 12.35 11.27 16.88 16.76 17.82 17.95 16.10 16.80 15.82 15.98 14.06 10.62 8.89 5.27 7.72 9.93 9.33 9.57 3.39 7.82 3.90 1.08 -0.53 6.45 5.69 5.80 8.08 9.24 7.69 8.37 9.68 8.72 8.85
34.39 32.75 31.96 32.87 31.31 29.92 29.57 24.49 26.34 26.67 26.13 17.91 10.03 15.54 13.72 15.24 16.79 14.92 14.11 14.03 13.97 12.42 9.44 6.48 5.98 2.18 7.09 7.02 3.99 6.99 9.08 9.41 7.77 4.54 8.69 7.85 8.01 10.09 10.34 7.98 8.36 8.18 8.41 7.99
32.99 32.47 33.10 31.09 29.76 25.20 19.22 16.97 20.65 25.97 26.76 19.38 12.70 14.15 14.27 13.38 16.04 14.13 13.37 15.50 11.07 11.73 9.34 5.76 8.22 8.23 10.50 7.35 0.44 6.56 8.26 7.57 8.05 8.67 6.94 3.65 6.22 4.77 7.40 7.87 6.65 8.66 7.51 7.35
31.65 31.08 30.54 29.49 28.90 27.87 21.68 23.86 24.81 24.77 19.57 18.28 11.73 11.30 13.32 12.34 9.91 10.30 11.49 12.26 14.04 7.54 7.90 9.23 6.55 11.50 12.25 2.39 5.24 7.81 6.96 6.92 6.71 6.20 6.93 5.67 6.74 6.72 5.41 6.58 6.56 5.10 3.61 5.09
30.32 29.28 27.32 27.39 22.85 20.50 20.57 24.94 23.23 22.23 19.06 8.50 5.81 1.75 3.88 10.21 9.03 9.52 12.08 11.92 7.35 10.63 7.02 4.96 6.69 9.23 1.50 4.14 5.11 5.81 5.81 4.47 4.20 5.82 5.35 5.77 3.70 4.23 5.11 5.26 4.87 3.64 4.11 4.56
29.06 27.99 25.67 21.01 19.79 26.14 24.18 22.10 18.97 14.34 12.22 11.29 3.12 7.04 3.66 4.81 6.50 7.81 8.54 10.04 4.91 4.45 2.50 5.45 9.11 3.84 7.57 8.36 8.10 8.40 7.09 6.59 7.22 2.72 2.53 3.39 2.64 3.80 3.88 3.88 5.26 4.45 4.96 5.39
26.36 22.59 19.99 22.09 25.15 23.87 19.34 11.70 9.97 11.80 6.01 5.97 4.98 2.56 1.04 6.57 1.01 1.13 0.44 3.41 5.42 5.31 3.33 3.84 5.94 4.12 6.46 10.02 7.30 8.83 9.27 9.11 8.41 8.11 7.64 6.66 5.65 4.52 4.10 3.91 5.35 5.26 5.86 4.87
23.02 22.33 22.24 24.02 19.29 16.37 12.88 8.13 9.96 5.49 1.06 5.70 2.78 2.83 3.16 5.06 5.61 3.37 4.42 5.49 8.24 2.02 4.18 5.18 2.60 6.69 8.97 8.58 7.50 8.94 10.11 9.03 8.16 8.94 7.04 6.70 5.94 5.96 5.34 5.11 4.63 4.54 5.69 6.04
25.22 20.85 16.13 17.56 13.20 5.49 3.69 1.57 7.06 6.76 5.01 5.97 4.50 1.94 2.14 5.82 6.75 3.49 5.50 6.72 2.68 4.87 5.92 3.79 6.28 10.15 9.96 8.74 9.16 9.01 10.20 9.23 8.40 7.26 7.34 6.78 5.59 6.16 5.46 4.79 4.98 5.22 4.42 5.56
17.61 15.76 7.20 10.19 7.01 7.27 6.33 4.88 4.93 7.68 5.42 4.71 4.03 3.00 2.32 5.21 4.83 3.60 7.06 4.49 3.61 3.62 0.87 2.19 9.93 9.86 9.06 9.37 9.50 8.46 7.07 7.13 6.08 5.40 5.50 4.86 4.14 3.88 4.87 5.85 5.61 4.35 3.34 4.40
13.70 15.97 8.38 9.05 9.33 9.39 8.49 6.99 4.93 7.49 7.14 5.31 3.86 5.38 3.79 7.23 7.17 7.52 9.03 4.58 1.74 3.33 3.42 8.88 11.96 10.73 9.76 8.24 7.98 7.64 6.67 5.95 5.09 5.52 4.51 4.22 4.02 3.53 3.51 5.69 5.73 5.36 4.85 3.88
14.61 11.55 11.67 9.66 9.81 11.78 9.57 7.88 7.10 8.57 6.74 4.95 3.75 5.01 9.12 4.48 4.98 6.85 2.32 2.50 1.11 6.77 11.47 13.22 12.56 10.02 8.76 8.12 7.86 7.45 7.29 6.37 5.94 5.96 5.24 4.96 4.10 3.92 4.20 5.38 5.71 5.65 4.65 3.38
14.59 11.56 10.18 9.41 9.83 10.49 9.58 7.79 8.44 9.30 6.97 7.67 7.35 7.36 4.71 6.03 7.64 5.81 6.20 5.81 10.48 13.21 13.27 13.53 12.49 9.75 8.80 7.61 7.18 7.97 6.88 5.91 5.98 5.60 4.47 4.11 5.11 5.33 4.34 2.68 4.39 5.47 5.36 4.60
MSLP
1017.13 1017.16 1016.97 1016.79 1016.52 1016.65 1017.12 1017.68 1019.28 1020.51 1020.60 1020.54 1019.18 1017.74 1016.19 1015.25 1014.15 1014.41 1014.36 1014.17 1014.00 1013.37 1012.96 1012.27 1011.80 1010.68 1009.80 1009.53 1010.36 1011.26 1011.59 1012.26 1012.62 1013.38 1014.91 1015.46 1015.17 1014.08 1013.61 1013.51 1013.26 1013.12 1013.30 1013.01
1016.54 1016.55 1016.47 1016.43 1016.20 1016.47 1017.08 1017.36 1019.10 1020.76 1020.67 1019.42 1018.10 1016.73 1015.73 1015.15 1014.45 1014.37 1014.53 1014.18 1013.82 1013.41 1013.07 1012.44 1011.68 1010.75 1009.56 1010.05 1010.25 1010.49 1011.06 1012.14 1012.19 1013.18 1015.33 1015.75 1015.24 1014.35 1013.74 1013.31 1013.57 1012.96 1014.09 1013.70
1015.87 1015.88 1015.87 1015.75 1015.78 1015.80 1016.41 1017.55 1018.61 1020.06 1020.18 1018.90 1017.90 1016.75 1015.52 1015.04 1014.16 1014.13 1014.17 1013.97 1013.97 1013.81 1012.95 1012.40 1011.43 1011.16 1011.12 1011.25 1010.98 1011.22 1011.19 1010.81 1010.29 1009.73 1011.10 1012.19 1014.00 1013.91 1014.24 1014.18 1014.13 1012.92 1013.37 1014.77
1015.47 1015.43 1015.52 1015.45 1015.20 1015.23 1016.04 1016.52 1016.59 1016.62 1018.05 1017.56 1016.81 1016.39 1015.54 1014.99 1014.71 1014.49 1014.66 1014.15 1013.85 1013.72 1013.04 1012.60 1012.23 1012.12 1012.41 1012.86 1012.83 1012.70 1012.30 1011.05 1010.57 1009.85 1011.07 1012.41 1013.01 1014.05 1014.78 1014.91 1013.75 1014.88 1014.76 1017.44
1014.87 1014.87 1014.82 1014.66 1014.70 1014.72 1015.18 1015.45 1016.20 1016.81 1016.25 1016.18 1015.97 1015.81 1015.01 1014.67 1014.09 1014.60 1014.53 1014.51 1013.37 1013.70 1013.57 1013.23 1013.04 1013.13 1013.22 1013.25 1014.12 1013.89 1013.32 1012.20 1011.81 1011.08 1011.97 1013.54 1014.89 1016.17 1017.08 1017.47 1017.60 1017.69 1018.52 1020.79
1014.41 1013.99 1014.04 1014.14 1014.24 1014.25 1014.42 1014.83 1015.29 1015.41 1015.15 1015.95 1016.00 1015.22 1014.61 1014.44 1014.65 1014.38 1014.83 1015.03 1014.72 1014.37 1014.41 1014.29 1014.38 1014.43 1014.48 1014.47 1014.62 1014.53 1014.32 1013.65 1013.32 1012.82 1013.93 1015.41 1017.85 1021.09 1021.41 1021.09 1022.01 1022.55 1022.84 1025.38
1014.81 1014.48 1014.22 1013.80 1013.72 1013.31 1013.42 1014.22 1015.06 1015.65 1015.23 1015.81 1015.81 1015.50 1015.58 1015.50 1015.61 1015.85 1015.97 1016.15 1015.85 1015.97 1015.71 1015.33 1015.27 1015.43 1015.65 1016.01 1016.40 1016.09 1015.08 1014.67 1014.47 1014.60 1015.84 1018.60 1023.47 1024.68 1024.79 1025.28 1026.00 1026.08 1026.55 1027.12
1015.28 1014.76 1014.45 1014.08 1013.65 1013.10 1013.17 1013.54 1014.67 1015.15 1015.94 1017.07 1017.62 1017.70 1017.54 1016.93 1016.83 1016.74 1016.90 1017.14 1017.17 1016.70 1016.04 1015.34 1015.08 1015.47 1016.13 1017.09 1017.75 1017.35 1016.91 1015.99 1015.92 1016.36 1018.08 1022.31 1024.52 1026.44 1027.96 1028.19 1028.18 1028.36 1028.21 1028.23
1015.55 1015.06 1014.59 1014.30 1013.62 1012.37 1013.52 1015.56 1015.69 1015.25 1016.38 1021.02 1021.93 1020.66 1019.90 1018.92 1018.11 1017.93 1017.83 1017.69 1017.39 1017.13 1016.03 1015.34 1015.05 1015.25 1016.68 1017.83 1018.58 1018.71 1018.46 1018.06 1018.02 1018.67 1020.33 1024.22 1027.98 1028.53 1029.05 1029.74 1029.00 1029.28 1029.31 1029.04
1016.26 1015.60 1015.00 1014.56 1014.17 1013.66 1014.27 1016.89 1017.16 1017.06 1020.73 1024.31 1023.63 1023.64 1023.18 1022.47 1020.95 1019.73 1019.16 1018.87 1018.01 1017.63 1016.55 1016.03 1016.33 1017.40 1018.81 1020.08 1021.44 1021.78 1021.09 1021.22 1021.45 1021.63 1023.65 1027.38 1029.41 1029.35 1029.02 1029.77 1030.36 1029.73 1029.59 1029.36
1016.98 1016.29 1015.26 1015.05 1014.93 1014.86 1015.48 1018.78 1018.20 1018.41 1022.98 1025.91 1026.38 1025.87 1025.82 1024.90 1024.17 1022.80 1021.42 1020.33 1019.59 1018.81 1018.24 1018.28 1019.03 1019.78 1021.49 1023.60 1026.00 1026.17 1026.43 1026.43 1026.17 1025.81 1026.61 1029.21 1030.49 1029.64 1030.39 1031.19 1030.49 1030.22 1029.93 1029.60
1017.69 1017.05 1016.45 1015.62 1015.77 1015.82 1016.06 1019.01 1019.86 1019.60 1021.76 1026.51 1027.02 1027.27 1027.61 1027.45 1026.86 1025.67 1023.35 1022.82 1022.35 1022.16 1021.36 1021.12 1021.50 1022.91 1024.06 1025.32 1027.47 1028.93 1030.08 1031.39 1030.82 1030.53 1030.48 1031.10 1031.34 1031.11 1031.43 1031.34 1031.07 1030.52 1030.15 1029.86
1018.73 1018.13 1017.48 1017.12 1016.95 1016.92 1017.41 1019.08 1019.84 1020.05 1022.89 1026.16 1027.01 1027.65 1027.75 1027.50 1026.86 1026.13 1025.33 1024.20 1024.29 1023.81 1023.99 1023.50 1024.56 1026.34 1027.45 1028.26 1030.77 1031.21 1032.36 1032.57 1032.50 1031.56 1031.28 1031.17 1031.13 1031.26 1031.52 1031.56 1031.27 1030.82 1030.29 1029.66
1019.86 1019.29 1018.77 1018.59 1018.55 1018.73 1018.84 1019.36 1020.11 1020.10 1022.04 1025.51 1028.46 1027.97 1027.95 1027.82 1026.90 1026.22 1025.78 1025.45 1025.23 1025.07 1025.02 1025.73 1027.20 1028.52 1029.80 1031.22 1032.56 1033.06 1034.20 1033.77 1033.75 1032.75 1032.14 1032.01 1031.28 1032.20 1032.48 1031.96 1031.56 1031.01 1030.57 1030.13
1020.68 1020.17 1019.85 1019.58 1019.70 1019.76 1019.84 1020.11 1020.82 1020.99 1021.14 1024.83 1027.21 1027.79 1028.41 1028.21 1027.54 1027.03 1026.69 1026.31 1026.09 1026.36 1027.02 1028.56 1030.55 1031.87 1031.86 1032.41 1032.66 1034.29 1035.15 1035.25 1034.95 1034.10 1034.11 1034.02 1033.29 1033.24 1032.90 1032.31 1031.75 1031.30 1030.82 1030.04
1021.41 1021.15 1020.41 1020.07 1020.24 1020.07 1019.75 1020.17 1021.42 1022.08 1021.89 1023.25 1026.36 1028.61 1028.98 1028.64 1028.30 1028.00 1027.74 1027.75 1027.88 1028.67 1029.87 1031.53 1033.05 1034.09 1033.77 1033.13 1033.85 1035.46 1035.82 1036.03 1036.06 1035.34 1034.86 1034.43 1033.73 1033.03 1032.90 1032.49 1031.88 1031.42 1030.74 1030.31
1022.13 1022.10 1021.56 1021.50 1021.26 1020.96 1022.46 1024.56 1024.56 1023.52 1022.77 1023.69 1026.62 1028.28 1029.66 1029.84 1029.08 1029.28 1029.33 1029.32 1030.08 1030.38 1031.65 1033.05 1033.48 1033.72 1033.43 1034.32 1035.44 1035.72 1036.04 1036.12 1035.71 1035.43 1035.09 1034.23 1033.69 1033.23 1032.85 1032.41 1031.94 1031.32 1030.78 1030.18
1022.61 1022.57 1022.51 1022.44 1022.40 1022.64 1023.41 1024.78 1024.59 1023.79 1023.96 1025.31 1027.92 1029.74 1030.35 1032.05 1031.19 1030.84 1031.35 1030.68 1030.84 1032.51 1033.24 1033.91 1034.15 1033.88 1034.02 1035.37 1036.41 1036.13 1036.25 1035.91 1035.44 1035.42 1035.25 1034.80 1033.97 1033.28 1032.80 1032.33 1031.64 1030.93 1030.46 1029.89
1022.74 1022.85 1022.85 1022.67 1023.33 1024.16 1025.56 1025.59 1025.58 1025.36 1026.14 1029.15 1032.12 1033.44 1033.52 1033.95 1033.40 1032.97 1032.10 1031.80 1032.22 1033.54 1033.91 1034.89 1035.05 1034.43 1035.53 1036.43 1036.41 1036.15 1036.22 1036.21 1035.74 1035.19 1034.80 1034.08 1033.73 1033.03 1032.52 1032.00 1031.39 1030.75 1030.03 1029.46
1022.90 1022.81 1022.84 1024.32 1026.27 1026.19 1025.84 1025.63 1025.92 1027.82 1030.54 1032.81 1035.35 1036.02 1035.73 1036.46 1034.80 1033.95 1033.38 1032.80 1033.30 1033.76 1035.48 1035.43 1034.38 1035.45 1036.01 1036.39 1036.44 1036.18 1036.21 1035.99 1035.48 1034.84 1033.86 1033.62 1033.17 1032.65 1032.10 1031.59 1031.02 1030.55 1029.69 1028.96
1023.53 1024.33 1025.69 1026.49 1026.31 1025.85 1026.60 1028.65 1030.30 1031.98 1034.32 1036.45 1037.29 1037.86 1037.58 1037.67 1037.17 1036.25 1035.98 1034.60 1034.00 1033.93 1035.34 1034.78 1034.42 1034.86 1035.73 1036.03 1036.12 1036.02 1035.80 1035.41 1035.01 1034.63 1034.11 1033.79 1033.26 1032.48 1031.80 1031.24 1030.56 1030.07 1029.27 1028.68
1025.74 1026.21 1027.11 1026.64 1027.45 1028.11 1029.69 1032.88 1034.06 1035.66 1037.69 1038.15 1038.35 1038.63 1038.79 1038.26 1038.09 1036.88 1035.86 1034.89 1033.92 1034.43 1035.29 1034.51 1034.06 1034.98 1035.52 1035.60 1035.58 1035.35 1035.05 1034.77 1034.40 1034.02 1033.61 1033.25 1032.86 1032.26 1031.63 1031.01 1030.36 1029.78 1029.07 1028.38
1026.11 1026.99 1028.71 1029.84 1031.84 1033.01 1035.18 1036.48 1036.89 1037.66 1038.92 1039.28 1039.50 1039.22 1039.18 1038.38 1037.84 1036.84 1035.75 1034.66 1035.06 1035.14 1034.26 1034.01 1034.28 1034.73 1035.15 1035.53 1035.33 1034.98 1034.75 1034.52 1034.12 1033.74 1033.42 1032.99 1032.53 1031.97 1031.36 1030.56 1030.12 1029.44 1028.86 1028.19
1028.80 1030.40 1032.77 1034.04 1036.18 1037.82 1038.77 1039.41 1039.73 1039.94 1040.17 1040.07 1039.80 1039.23 1038.91 1038.14 1037.22 1036.45 1035.29 1035.72 1035.34 1034.22 1033.91 1033.63 1033.76 1034.58 1035.12 1035.22 1035.09 1034.85 1034.54 1034.31 1034.03 1033.65 1033.15 1032.67 1032.20 1031.64 1031.13 1030.31 1029.76 1029.17 1028.49 1027.83
1032.26 1033.11 1036.03 1037.81 1039.11 1039.47 1039.85 1040.38 1040.63 1040.51 1040.49 1040.16 1039.73 1039.04 1038.59 1037.18 1036.44 1035.91 1035.28 1035.07 1034.75 1034.57 1034.08 1033.84 1034.09 1034.64 1034.93 1035.01 1034.89 1034.71 1034.41 1034.07 1033.72 1033.32 1032.84 1032.37 1031.87 1031.35 1030.72 1030.01 1029.42 1028.82 1028.18 1027.65
1034.98 1036.72 1038.24 1039.18 1039.31 1039.29 1039.87 1040.33 1040.24 1040.46 1040.46 1040.57 1040.01 1038.60 1037.21 1037.21 1036.74 1035.78 1035.98 1035.73 1035.00 1034.21 1034.06 1034.15 1034.34 1034.55 1034.88 1034.96 1034.88 1034.65 1034.30 1033.93 1033.49 1033.02 1032.57 1032.08 1031.58 1030.90 1030.24 1029.58 1028.93 1028.32 1027.87 1027.20
1037.50 1039.44 1039.76 1039.87 1039.97 1039.97 1040.10 1040.41 1040.35 1040.69 1040.15 1039.38 1038.85 1038.12 1038.01 1037.60 1036.46 1035.98 1036.10 1035.49 1034.80 1034.39 1034.21 1034.29 1034.42 1034.56 1034.64 1034.71 1034.64 1034.34 1034.00 1033.60 1033.16 1032.73 1032.35 1031.85 1031.25 1030.57 1029.82 1029.05 1028.45 1027.88 1027.34 1026.76
Wind_Speed
13 13 12 12 13 5 11 2 4 1 2 3 3 5 7 5 12 7 12 6 9 10 12 8 8 14 13 9 12 10 4 1 11 10 4 3 3 5 12 7 8 7 5 9
11 12 12 12 12 12 3 3 2 2 3 5 6 7 8 6 11 6 5 6 8 6 6 7 8 11 7 12 12 11 10 7 6 5 3 2 8 8 6 1 3 11 7 8
12 12 11 11 12 9 4 3 3 1 2 1 2 5 7 6 9 11 7 7 7 4 8 11 6 7 1 4 7 7 10 7 12 16 2 6 8 10 12 11 7 9 19 8
13 12 12 11 11 8 4 3 4 3 3 7 12 8 3 8 8 7 2 5 11 12 6 5 8 9 1 1 4 4 7 8 14 19 3 3 3 6 14 17 23 11 5 7
13 13 13 12 12 7 4 3 3 2 2 3 7 7 6 11 18 7 8 12 14 8 10 11 5 4 4 4 5 6 2 3 4 6 7 3 4 1 5 9 10 10 13 4
11 11 11 11 13 8 3 1 1 2 7 4 5 7 9 8 4 3 4 5 5 8 5 3 4 4 8 5 2 8 4 4 3 5 5 2 4 12 12 7 12 8 6 8
14 12 11 11 14 13 6 4 3 3 5 8 6 2 0 3 1 4 2 3 4 4 3 6 6 10 11 12 11 9 2 3 1 2 2 4 6 12 8 11 11 12 11 11
14 13 13 14 16 16 6 2 4 3 5 3 3 5 4 4 2 3 3 3 3 8 5 4 4 4 4 7 10 10 8 2 2 3 2 8 9 11 8 8 7 6 10 12
15 15 14 12 18 9 6 4 4 2 2 4 3 5 4 4 3 3 2 1 4 4 3 3 4 2 4 3 3 9 8 8 3 2 1 4 7 11 2 3 3 8 9 12
21 17 14 14 12 13 8 5 8 5 9 5 8 5 5 7 5 4 3 6 4 3 2 2 2 4 5 5 7 9 6 6 7 7 6 6 9 16 9 4 9 12 12 13
22 24 15 14 14 13 9 6 7 6 7 9 10 8 8 6 6 6 7 4 4 4 3 4 4 5 5 7 7 6 8 7 6 7 5 4 17 8 7 9 12 15 17 16
21 23 28 16 14 12 8 6 5 7 10 5 3 10 10 7 7 5 6 4 6 5 2 4 4 6 5 9 6 12 8 6 5 7 5 3 14 9 5 7 11 15 16 16
21 22 24 25 29 30 21 12 9 8 9 8 5 7 7 13 7 5 4 3 5 4 3 3 4 10 6 5 9 5 3 3 5 9 6 16 18 6 15 15 15 16 16 18
19 24 25 25 25 24 17 7 4 5 7 7 4 2 5 11 12 12 4 2 4 3 6 6 6 6 8 7 10 11 5 8 13 10 10 17 2 16 18 17 16 19 19 19
22 8 6 16 20 21 13 10 10 5 3 7 5 3 11 12 12 16 14 11 7 5 6 7 7 4 3 2 5 10 8 7 9 8 15 11 16 17 18 14 16 16 17 19
22 28 15 6 4 3 3 3 9 12 5 6 5 3 10 15 11 15 16 10 9 5 5 4 4 0 3 4 4 8 9 8 9 11 15 14 17 15 12 15 14 15 16 15
10 15 26 32 29 12 9 5 6 12 4 4 6 4 7 12 8 5 7 10 6 5 4 5 3 3 4 5 6 13 10 12 12 9 13 15 9 16 14 12 15 15 14 14
7 10 12 10 9 11 9 10 15 5 6 6 5 4 4 13 7 5 7 5 4 8 4 2 4 1 3 4 11 10 10 14 10 12 11 13 13 14 14 13 14 14 15 10
3 3 3 2 8 6 4 7 6 8 9 7 7 6 5 10 6 4 2 4 5 2 4 3 4 3 5 6 12 11 10 11 14 14 14 11 15 15 14 15 16 13 16 11
4 1 3 5 4 12 7 2 6 10 9 8 6 6 5 7 6 5 4 4 3 3 4 3 1 2 2 3 9 8 9 11 11 14 16 17 18 16 17 16 13 14 16 12
4 5 4 3 8 2 6 8 8 7 7 7 5 6 5 5 4 5 4 2 1 2 3 4 0 2 5 7 9 7 9 11 13 13 13 14 16 15 15 16 17 16 17 13
5 5 2 2 8 7 9 6 5 8 5 6 5 6 4 3 3 3 3 3 1 4 3 3 4 3 7 11 11 11 12 13 15 15 16 16 16 15 14 14 15 16 16 16
2 6 7 7 8 17 10 11 5 4 6 6 7 4 4 3 1 3 3 5 3 2 2 4 2 6 10 10 10 13 15 16 16 16 16 15 16 15 15 13 14 15 15 15
8 7 11 8 8 6 4 3 4 4 5 7 6 4 3 2 3 2 4 3 2 5 4 3 8 11 11 12 12 12 15 16 16 16 16 16 15 15 16 15 13 12 13 15
7 6 9 8 2 1 2 3 4 2 4 5 3 3 2 2 2 3 3 5 5 3 4 8 10 11 11 12 12 12 13 12 11 12 12 12 12 12 13 14 13 13 12 13
5 10 5 2 2 3 0 1 3 1 3 1 2 3 3 5 4 4 4 6 3 4 8 9 10 10 10 10 11 12 12 11 11 12 12 13 13 13 14 13 12 12 13 12
7 5 3 3 1 3 3 3 4 3 3 3 2 5 5 3 2 3 2 3 7 10 9 8 10 10 11 9 9 10 10 11 11 11 12 12 13 12 12 12 13 13 14 11
Wind_Direction
276 273 272 272 278 143 158 168 250 85 184 185 192 216 218 233 267 245 242 251 241 233 212 225 225 217 219 157 153 169 182 282 236 207 85 9 324 225 184 196 189 224 282 262
273 268 266 270 276 177 158 212 113 22 312 217 220 237 265 279 277 238 231 247 225 219 252 253 217 249 242 166 170 181 169 206 220 201 176 144 221 192 233 247 50 216 211 249
264 263 265 263 267 268 186 140 229 76 213 296 265 275 256 241 228 252 215 245 221 236 246 239 265 233 264 290 226 256 185 197 216 238 119 122 190 189 201 203 202 221 224 241
266 261 259 263 263 264 170 203 228 169 203 218 225 228 250 254 273 219 223 255 221 234 262 242 236 245 81 105 270 258 192 250 225 249 205 193 175 175 183 204 225 217 268 273
268 261 255 250 255 251 230 223 184 203 275 254 192 210 203 242 264 229 245 236 264 233 247 265 298 319 161 219 159 199 333 304 332 263 227 251 250 212 204 243 272 269 284 295
296 286 273 268 250 197 231 122 11 194 165 182 192 198 232 259 227 192 23 319 307 257 297 29 16 43 41 53 174 188 195 219 181 252 85 149 167 8 355 355 43 342 7 22
18 8 346 326 304 241 234 177 143 177 243 208 221 165 276 249 245 269 46 345 277 64 126 126 106 81 73 56 32 15 277 184 207 54 139 225 70 18 13 82 45 41 56 30
12 1 352 345 317 285 266 149 163 170 234 339 94 13 330 280 213 233 299 1 320 304 276 253 230 179 194 69 35 20 13 323 165 255 144 122 32 19 10 3 50 21 18 0
10 6 358 356 358 292 95 58 310 194 206 62 330 316 349 340 340 192 37 94 324 293 270 237 251 261 19 89 104 31 34 16 346 63 316 64 1 346 37 287 152 15 344 345
16 2 7 6 31 55 93 59 355 72 96 9 359 30 353 334 331 301 33 350 350 315 293 259 337 85 332 37 35 353 6 3 26 359 89 104 13 328 300 269 4 339 336 323
29 26 23 34 51 66 76 55 13 97 82 50 40 39 30 346 352 345 356 276 41 350 21 4 34 41 48 88 39 14 40 330 26 345 59 97 9 2 20 322 315 326 325 320
38 40 42 55 52 66 85 87 21 55 86 111 66 75 47 6 309 295 328 33 23 18 321 41 58 46 44 20 58 10 44 16 359 7 45 26 348 330 318 299 295 308 314 315
43 49 56 62 67 72 92 105 111 84 101 90 50 2 354 15 1 297 326 74 339 40 316 49 75 73 345 59 36 73 94 7 17 331 7 348 323 336 349 337 328 324 318 318
55 60 68 70 74 76 72 70 42 66 97 86 21 340 16 352 18 37 8 68 79 58 28 64 50 77 29 65 94 64 2 350 336 316 338 319 291 351 332 328 326 324 321 318
38 357 83 83 78 81 80 74 55 43 71 116 149 165 20 13 23 37 38 42 49 25 48 50 60 57 88 47 83 49 0 347 347 318 322 320 314 319 321 315 317 323 322 314
48 50 48 32 36 347 260 98 50 16 46 112 88 108 14 11 16 32 37 33 40 58 59 73 81 249 297 58 59 39 353 0 323 306 313 313 305 304 316 319 315 317 316 317
54 54 62 66 65 68 50 37 322 330 303 88 110 80 36 348 17 40 15 41 51 49 69 52 54 45 342 61 10 334 352 331 317 323 323 316 321 317 315 318 314 309 309 305
76 69 70 67 69 79 47 31 24 21 86 35 65 53 67 5 8 14 6 12 51 32 79 82 20 126 49 59 336 329 335 326 319 326 318 296 305 313 317 318 312 318 311 321
99 106 67 44 30 38 10 3 32 46 41 80 53 9 3 350 20 21 346 330 65 360 55 47 286 84 55 332 323 323 327 327 310 315 307 314 320 315 321 319 321 318 313 318
106 296 23 45 20 318 307 2 26 29 32 44 56 329 5 338 334 29 337 31 47 64 34 281 26 91 215 302 325 310 312 314 309 320 321 330 321 320 322 320 315 321 309 319
33 33 53 338 310 310 34 44 32 4 49 22 14 32 336 42 357 351 24 5 5 69 43 321 67 106 10 339 329 307 298 320 314 317 313 319 314 315 315 321 315 322 314 322
79 89 128 33 24 26 56 29 25 36 36 12 354 345 339 331 315 300 18 354 258 47 329 269 353 59 349 347 332 327 332 332 322 329 322 323 321 315 318 309 323 315 316 319
82 49 44 12 349 41 31 360 15 12 1 18 342 327 355 299 269 266 294 26 47 274 300 3 2 1 352 337 325 328 333 332 325 329 325 324 322 319 319 318 324 319 316 321
50 42 32 40 33 47 11 331 327 339 318 331 326 290 339 336 307 306 20 36 268 354 335 325 350 355 336 332 330 329 328 329 327 326 324 324 323 318 321 316 325 321 315 324
48 35 49 50 36 276 304 309 292 275 294 321 312 239 270 353 341 10 360 2 1 357 307 319 336 336 330 327 328 327 324 324 321 321 321 317 317 318 311 318 322 316 319 319
61 42 83 93 235 58 68 316 309 357 314 275 237 299 339 41 344 23 38 335 290 304 323 324 323 322 321 316 319 318 320 318 319 321 322 320 323 319 320 316 317 319 321 313
50 51 33 13 323 334 342 328 349 343 279 3 297 28 7 281 335 2 204 259 302 310 311 310 313 312 314 307 303 312 317 316 316 318 321 318 311 312 314 317 323 323 321 321